Погода в Бешкенте

Узбекистан     38°49′17″N   65°38′57″E
темп.,
°C
ветер,
м/с
пор.,
м/с
влажн.,
%
обл.,
%
осадки,
мм/ч
давл.,
гПа
погр.,
м
3 марта, ср
ср323:00+12ссв124099 0.0 102324
02:00+11сз3339100 0.0 102239
05:00+8св115098 0.0 102222
08:00+9ссв005954 0.0 102322
11:00+14зюз114537 0.0 1022694
14:00+16зюз22286 0.0 10201606
17:00+16зсз22256 0.0 10191703
20:00+12с35380 0.0 1019100
4 марта, чт
чт423:00+10св23430 0.0 101935
02:00+10всв23460 0.0 101827
05:00+10в345624 0.0 101727
08:00+10в466532 0.3 1017113
11:00+17ю354062 0.4 1017738
14:00+21юз692828 0.0 10162726
17:00+20з783129 0.0 10172588
20:00+13сз8134857 0.3 1022731
5 марта, пт
пт523:00+10с366262 0.4 1025482
02:00+8сз337896 1.6 1028338
05:00+7ссз228098 1.8 1028183
08:00+7с347820 0.0 1028137
11:00+11ссв225810 0.0 1027638
14:00+15св22400 0.0 1022922
17:00+16с21360 0.0 1019890
20:00+13св464991 0.0 1018156
6 марта, сб
сб623:00+12св345295 0.0 101582
02:00+11всв465489 0.0 101293
05:00+12всв344294 0.0 100980
08:00+9зсз7969100 3.1 1008260
11:00+14вюв51058100 10.3 1010395
14:00+14ююз12156793 0.1 10101239
17:00+10юз11157096 0.1 10131303
20:00+7юз91280100 0.3 1017798
7 марта, вс
вс723:00+5зюз7989100 2.4 1020616
02:00+5зюз5787100 0.4 1021492
05:00+5з4588100 1.1 1021394
08:00+4юз3578100 0.2 1022463
11:00+7юз335995 0.2 1021914
14:00+10ююз454726 0.0 10191273
17:00+12ююз474113 0.0 10161167
20:00+9ююв01600 0.0 101623